STARLINK-32838, 62827

Orbit data source: Space-Track

STARLINK-32838, 62827 is a payload satellite owned by SpaceX/Seattle (US) in LEO that was launched on Fri, 24 Jan 2025 UTC via an FALCON 9 launch vehicle from the Air Force Western Test Range (AFWTR). Payload-class satellites include a variety of spacecraft equipped with specific instruments for various scientific and technological missions. These include communications satellites like Starlink; space stations such as the ISS; scientific satellites like the Hubble; Earth observation satellites from companies like Planet Labs, Umbra, and HawkEye 360; GPS; miniature CubeSats for education and research; and military/defense satellites.

Loading next visibility...
Identifier
62827, 2025-018X
Orbit
LEO
Last TLE update
9 hours ago
Origin
Manufacturer
SpaceX/Seattle
Mission
Partially operational Commercial Communications
Bus & Motor
STARLINK V2M, Unknown motor
Mass
730 kg wet, ~700 kg dry
Launch date (UTC)
2025-01-24 (5 months ago)
Launch vehicle
FALCON 9
Launch site
Air Force Western Test Range (AFWTR)
Object type
Payload
Rocket body
Debris
Shape & HBR
Box + 2 Pan, 29 m
Radar Cross Section
33.884 m², Large (>1 m²)

Expand to show TLE details & history

TLE from 9 hours ago
0 STARLINK-32838
1 62827U 25018X   25183.75294846  .00025733  00000-0  65084-3 0  9991
2 62827  53.1606 355.9491 0001032  87.9334 272.1789 15.39633854 26083
Epoch: 2025-07-02T18:04Z
TLE epoch observation values (Epoch: 2025-07-02T18:04:14.746Z)
Latitude
-0.00005°
Longitude
163.85809°
Altitude
448.068 km
Speed
7.645 km/s
True Right ascension
23h 43m 47s
True Declination
0° 00' 00"
Sunlit
Object was in daylight at epoch
Visualization orbit readout
Latitude
5.5831°
Longitude
-21.99496°
Altitude
447.413 km
Speed
7.645 km/s
Apparent Right ascension
08h 15m 52s
Apparent Declination
-35° 13' 57"
Sunlit
Object is in daylight
Visualization observer readout
Local Sidereal Time
14:21:32
Azimuth
242.256° WSW
Elevation
-22.686°
Doppler factor
1
Orbital elements
Apogee altitude
448.153 km
Perigee altitude
446.744 km
Semi-major axis
6,825.586 km
Eccentricity
0.0001
Inclination
53.1606°
RAAN
355.9491°
Arg. of periapsis
87.9334°
True anomaly
Unknown
Mean anomaly
272.1789°
Eccentric anomaly
Unknown
Mean motion
3.84887 °/min
Orbital period
93.53 mins
BSTAR
0.00065084
Loading maneuver chart data...
Loading SW <> Apogee altitude chart data...
Loading historical data...
Loading historical data...
Loading historical data...
Loading historical data...
Loading historical data...
Loading historical data...
Loading historical data...

STARLINK-32838 Visibility forecast

Observer location: undefined°, undefined°

Span
Click to sort rows by Start time (UTC) header in descending order
Start Az.
Max El. time (UTC)
Max El. Az.
Max El.
End time (UTC)
End Az.
5 mins2025-07-03 14:31:30.044Z245.507° WSW2025-07-03 14:33:30.044Z286.2° WNW39.055°2025-07-03 14:36:30.044Z40.523° NE
5 mins2025-07-03 21:04:30.044Z304.853° NW2025-07-03 21:06:30.044Z207.824° SW44.283°2025-07-03 21:09:30.044Z136.208° SSE
|